GW5434 Weather Reports


time (UTC)temp
C
wind
direction
speed
KPH
gust
KPH
rain 1hr
cm
rain 24hr
cm
rain mn
cm
humidity
%
barometer
mb
20260504081512 7 117 0.0 0.0 0.00 0.00 0.00 94 1018.3
20260504050008 10 117 0.0 0.0 0.00 0.00 0.00 92 1019.2
20260504044515 10 117 0.0 0.0 0.00 0.00 0.00 92 1019.3
20260504043023 10 117 0.0 1.6 0.00 0.00 0.00 91 1019.4
20260504041522 11 175 0.0 0.0 0.00 0.00 0.00 91 1019.5
20260504040024 11 96 0.0 3.2 0.00 0.00 0.00 91 1019.5
20260504034509 11 175 0.0 0.0 0.00 0.00 0.00 92 1019.4
20260504033014 11 115 0.0 3.2 0.00 0.00 0.00 90 1019.6
20260504031518 12 174 0.0 0.0 0.00 0.00 0.00 91 1019.6
20260504030025 12 83 0.0 0.0 0.00 0.00 0.00 90 1019.4
20260504024525 12 123 0.0 3.2 0.00 0.00 0.00 90 1019.3
20260504023010 12 116 0.0 1.6 0.00 0.00 0.00 88 1019.2
20260504021517 13 103 0.0 1.6 0.00 0.00 0.00 87 1019.1
20260504020020 13 83 0.0 1.6 0.00 0.00 0.00 85 1019.0
20260504014524 14 181 0.0 0.0 0.00 0.00 0.00 85 1018.8
20260504013030 15 181 0.0 0.0 0.00 0.00 0.00 83 1018.5
20260504011514 15 181 0.0 0.0 0.00 0.00 0.00 80 1018.5
20260504010015 16 279 0.0 0.0 0.00 0.00 0.00 79 1018.3
20260504004523 17 279 0.0 0.0 0.00 0.00 0.00 74 1018.3
20260504003023 20 279 0.0 0.0 0.00 0.00 0.00 69 1018.3
20260504001526 22 279 0.0 0.0 0.00 0.00 0.00 61 1018.1
20260504000016 23 279 0.0 0.0 0.00 0.00 0.00 54 1018.1
20260503234519 25 280 0.0 1.6 0.00 0.00 0.00 50 1018.2
20260503233021 25 269 1.6 3.2 0.00 0.00 0.00 37 1018.2
20260503231504 25 264 1.6 3.2 0.00 0.00 0.00 36 1018.3
20260503230003 25 298 1.6 8.0 0.00 0.00 0.00 36 1018.3
20260503224503 25 236 6.4 12.9 0.00 0.00 0.00 37 1018.4
20260503223005 25 201 0.0 4.8 0.00 0.00 0.00 35 1018.3
20260503221503 24 314 3.2 9.7 0.00 0.00 0.00 35 1018.4
20260503220004 25 286 3.2 9.7 0.00 0.00 0.00 35 1018.6
20260503214507 24 296 6.4 12.9 0.00 0.00 0.00 35 1018.8
20260503213004 24 267 8.0 14.5 0.00 0.00 0.00 35 1019.1
20260503211504 25 273 6.4 12.9 0.00 0.00 0.00 36 1019.1
20260503210008 25 294 4.8 9.7 0.00 0.00 0.00 35 1019.3
20260503204506 23 273 3.2 12.9 0.00 0.00 0.00 38 1019.5
20260503203005 24 7 3.2 11.3 0.00 0.00 0.00 39 1019.6
20260503201508 23 82 3.2 14.5 0.00 0.00 0.00 38 1019.9
20260503200004 24 302 9.7 14.5 0.00 0.00 0.00 37 1020.2
20260503194506 24 165 3.2 4.8 0.00 0.00 0.00 37 1020.5
20260503193002 23 269 4.8 9.7 0.00 0.00 0.00 37 1020.8
20260503191507 23 155 1.6 11.3 0.00 0.00 0.00 38 1020.9
20260503190017 23 224 1.6 12.9 0.00 0.00 0.00 40 1021.3
20260503184508 23 302 3.2 14.5 0.00 0.00 0.00 37 1021.5
20260503183014 24 270 4.8 14.5 0.00 0.00 0.00 39 1021.6
20260503181508 23 300 3.2 12.9 0.00 0.00 0.00 40 1021.7
20260503180011 23 353 6.4 12.9 0.00 0.00 0.00 38 1021.9
20260503174509 22 253 6.4 14.5 0.00 0.00 0.00 39 1022.0
20260503173007 22 315 8.0 12.9 0.00 0.00 0.00 38 1022.2
20260503171508 22 330 9.7 12.9 0.00 0.00 0.00 38 1022.4